Header for Extended Forecast Station List Page

Search by: ID | Name | Date | Parm | Value | Avg | % Avg
Sort by: ID | Name | Date | Parm | Value | Avg | % Avg

Enter search or view all records.

Click on id for station plot
#IDNameDateParmValueAvg% Avg
0LYDM8KOOTENAI-LIBBY DAM11-28-2016INFLOW (KAF)1068781137
1LEOI1KOOTENAI-AT LEONIA11-28-2016DISCHARGE (KAF)29601301228
2BFEI1KOOTENAI-AT BONNERS FERRY11-28-2016STAGE (FT)MMM
3FCFM8NF FLATHEAD-NEAR COLUMBIA FALLS11-28-2016DISCHARGE (KAF)279168166
4WGCM8MF FLATHEAD-NEAR WEST GLACIER11-28-2016DISCHARGE (KAF)183149123
5HHWM8SF FLATHEAD-HUNGRY HORSE DAM11-28-2016INFLOW (KAF)237237100
6CFMM8FLATHEAD-AT COLUMBIA FALLS11-28-2016DISCHARGE (KAF)1059114093
7DLGM8CLARK FORK-AT DEER LODGE11-28-2016DISCHARGE (KAF)456273
8DRMM8CLARK FORK-NR DRUMMOND11-28-2016DISCHARGE (KAF)102MM
9RCCM8ROCK CREEK-NEAR CLINTON11-28-2016DISCHARGE (KAF)444597
10BONM8BLACKFOOT-NEAR BONNER11-28-2016DISCHARGE (KAF)10613479
11ABOM8CLARK FORK-ABOVE MISSOULA11-28-2016DISCHARGE (KAF)26233778
12BITM8BITTERROOT-NEAR MISSOULA11-28-2016DISCHARGE (KAF)17922181
13BELM8CLARK FORK-BELOW MISSOULA11-28-2016DISCHARGE (KAF)44256878
14STRM8ST. REGIS-NEAR ST. REGIS11-28-2016DISCHARGE (KAF)314963
15SRGM8CLARK FORK-AT ST REGIS11-28-2016DISCHARGE (KAF)57276375
16KERM8FLATHEAD-KERR DAM11-28-2016INFLOW (KAF)1249149783
17NOXM8CLARK FORK-NOXON RAPIDS DAM11-28-2016INFLOW (KAF)3093368384
18CABI1CLARK FORK-CABINET GORGE DAM11-28-2016INFLOW (KAF)3407386288
19PRTI1PRIEST-NEAR PRIEST RIVER11-28-2016DISCHARGE (KAF)253211120
20ALFW1PEND OREILLE-ALBENI FALLS DAM11-28-2016INFLOW (KAF)3838453985
21HOPI1PEND OREILLE-PEND OREILLE LAKE NR HOPE11-28-2016LAKE ELEVATION (FT)MMM
22COEI1COEUR D ALENE-COEUR D ALENE LAKE11-28-2016INFLOW (KAF)964106890
23SPOW1SPOKANE-AT SPOKANE11-28-2016DISCHARGE (KAF)947MM
24LLKW1SPOKANE-AT LONGLAKE11-28-2016INFLOW (KAF)1231158678
25SATI1ST MARIES-NEAR SANTA11-28-2016DISCHARGE (KAF)386162
26SJMI1ST JOE-AT ST MARIES11-28-2016STAGE (FT)MMM
27CIBW1COLUMBIA-AT INTL BOUNDARY11-28-2016DISCHARGE (KAF)21063MM
28LAUW1KETTLE-AT LAURIER11-28-2016DISCHARGE (KAF)191127151
29GCDW1COLUMBIA-GRAND COULEE DAM11-28-2016INFLOW (KAF)2255316997133
30CHJW1COLUMBIA-CHIEF JOSEPH DAM11-28-2016INFLOW (KAF)2412522767106
31TONW1OKANOGAN-NEAR TONASKET11-28-2016DISCHARGE (KAF)26828893
32PATW1METHOW-NEAR PATEROS11-28-2016DISCHARGE (KAF)10597108
33WELW1COLUMBIA-WELLS DAM11-28-2016INFLOW (KAF)2450523176106
34CHDW1CHELAN-LAKE CHELAN DAM11-28-2016INFLOW (KAF)209167125
35RRHW1COLUMBIA-ROCKY REACH DAM11-28-2016INFLOW (KAF)2492023738105
36ARDW1ENTIAT-NEAR ARDENVOIR11-28-2016DISCHARGE (KAF)3123137
37PESW1WENATCHEE-AT PESHASTIN11-28-2016DISCHARGE (KAF)24731478
38WANW1COLUMBIA-WANAPUM DAM11-28-2016INFLOW (KAF)2516520744121
39PRWW1COLUMBIA-PRIEST RAPIDS DAM11-28-2016INFLOW (KAF)2516621050120
40KEDW1YAKIMA-KEECHELUS LAKE11-28-2016INFLOW (KAF)395079
41KADW1KACHESS-KACHESS DAM11-28-2016INFLOW (KAF)364974
42EASW1YAKIMA-AT EASTON11-28-2016DISCHARGE (KAF)658081
43CLUW1CLE ELUM-CLE ELUM LAKE11-28-2016INFLOW (KAF)7910575
44TNAW1TEANAWAY-BELOW FORKS11-28-2016DISCHARGE (KAF)285947
45UMTW1YAKIMA-AT UMTANUM11-28-2016DISCHARGE (KAF)25731681
46BUDW1BUMPING-BUMPING LAKE DAM11-28-2016INFLOW (KAF)263869
47CLFW1NACHES-NEAR CLIFFDEL11-28-2016DISCHARGE (KAF)8912471
48RILW1TIETON-RIMROCK LAKE NEAR RIMROCK11-28-2016INFLOW (KAF)567377
49NACW1NACHES-NEAR NACHES11-28-2016DISCHARGE (KAF)7811369
50PARW1YAKIMA-NEAR PARKER11-28-2016DISCHARGE (KAF)45257279
51KIOW1YAKIMA-AT KIONA11-28-2016DISCHARGE (KAF)63183176
52IPDI1HENRYS FORK-ISLAND PARK DAM11-28-2016INFLOW (KAF)7811170
53CHEI1FALL RIVER-NEAR CHESTER11-28-2016DISCHARGE (KAF)9811089
54ANTI1HENRYS FORK-AT ST. ANTHONY11-28-2016DISCHARGE (KAF)31934393
55TEAI1TETON-NEAR ST. ANTHONY11-28-2016DISCHARGE (KAF)819685
56REXI1HENRYS FORK-AT REXBURG11-28-2016DISCHARGE (KAF)38842791
57JLKW4SNAKE-JACKSON LAKE AT DAM11-28-2016INFLOW (KAF)10911794
58JKSW4SNAKE-NEAR JACKSON11-28-2016DISCHARGE (KAF)302299101
59ALPW4SNAKE-NEAR ALPINE11-28-2016DISCHARGE (KAF)34236793
60PLDI1SF SNAKE-PALISADES DAM11-28-2016INFLOW (KAF)52759189
61HEII1SNAKE-NEAR HEISE11-28-2016DISCHARGE (KAF)555555100
62RIDI1WILLOW CREEK-RIRIE DAM11-28-2016INFLOW (KAF)91088
63SIFI1SNAKE-AB EAGLE ROCK NR IDAHO FALLS11-28-2016DISCHARGE (KAF)77580297
64SHYI1SNAKE-NEAR SHELLEY11-28-2016DISCHARGE (KAF)75281692
65SNAI1SNAKE-AT BLACKFOOT11-28-2016DISCHARGE (KAF)68174991
66BFTI1SNAKE-NEAR BLACKFOOT11-28-2016DISCHARGE (KAF)68179286
67PIHI1PORTNEUF-AT POCATELLO11-28-2016DISCHARGE (KAF)387253
68AFRI1SNAKE-AMERICAN FALLS RESERVOIR11-28-2016INFLOW (KAF)1289150586
69MILI1SNAKE-AT MILNER11-28-2016DISCHARGE (KAF)16990
70HOTI1BRUNEAU-NEAR HOT SPRINGS11-28-2016DISCHARGE (KAF)293679
71SWAI1SNAKE-BELOW SWAN FALLS11-28-2016DISCHARGE (KAF)1669265363
72HWRI1BIG LOST-AT HOWELL RANCH NEAR CHILLY11-28-2016DISCHARGE (KAF)2319123
73MACI1BIG LOST-MACKAY RESERVOIR NEAR MACKAY11-28-2016INFLOW (KAF)4141008
74HALI1BIG WOOD-AT HAILEY11-28-2016DISCHARGE (KAF)3837104
75MAGI1BIG WOOD-MAGIC DAM11-28-2016INFLOW (KAF)313589
76LWRI1LITTLE WOOD-LITTLE WOOD DAM11-28-2016INFLOW (KAF)121673
77OWYO3OWYHEE-OWYHEE DAM11-28-2016INFLOW (KAF)8714759
78ARAI1SF BOISE-ANDERSON RANCH DAM11-28-2016INFLOW (KAF)688778
79LUCI1BOISE-LUCKY PEAK DAM11-28-2016INFLOW (KAF)179MM
80BIGI1BOISE-AT GLENWOOD BRIDGE11-28-2016DISCHARGE (KAF)13745306
81PARI1BOISE-NEAR PARMA11-28-2016DISCHARGE (KAF)273223123
82WRMO3MALHEUR-WARM SPRINGS DAM11-28-2016INFLOW (KAF)6649136
83BERO3MALHEUR-AGENCY VALLEY DAM11-28-2016INFLOW (KAF)242788
84BULO3BULLY CREEK-BULLY CREEK DAM11-28-2016INFLOW (KAF)597851
85VALO3MALHEUR-NEAR VALE11-28-2016DISCHARGE (KAF)4641110
86CSDI1NF PAYETTE-CASCADE DAM11-28-2016INFLOW (KAF)6710365
87DEDI1DEADWOOD-NEAR LOWMAN11-28-2016INFLOW (KAF)141973
88EMMI1PAYETTE-NEAR EMMETT11-28-2016DISCHARGE (KAF)24242158
89WSRI1WEISER-NEAR WEISER11-28-2016DISCHARGE (KAF)15917491
90WEII1SNAKE-AT WEISER11-28-2016DISCHARGE (KAF)2610401865
91BRNI1SNAKE-BROWNLEE DAM11-28-2016INFLOW (KAF)2869419668
92WHBI1SALMON-AT WHITEBIRD11-28-2016DISCHARGE (KAF)924107086
93TRYO3GRANDE RONDE-TROY11-28-2016DISCHARGE (KAF)27245859
94ANAW1SNAKE-NEAR ANATONE11-28-2016DISCHARGE (KAF)4444642669
95ORFI1CLEARWATER-AT OROFINO11-28-2016DISCHARGE (KAF)65591871
96DWRI1NF CLEARWATER-DWORSHAK DAM11-28-2016INFLOW (KAF)56070879
97SPDI1CLEARWATER-AT SPALDING11-28-2016DISCHARGE (KAF)1519206973
98LGDW1SNAKE-LOWER GRANITE DAM11-28-2016INFLOW (KAF)5960864469
99LGSW1SNAKE-LITTLE GOOSE DAM11-28-2016INFLOW (KAF)5960871168
100LMNW1SNAKE-LOWER MONUMENTAL DAM11-28-2016INFLOW (KAF)6396891772
101IHDW1SNAKE-ICE HARBOR DAM11-28-2016INFLOW (KAF)6396885672
102TCHW1WALLA WALLA-NEAR TOUCHET11-28-2016DISCHARGE (KAF)192184105
103MCDW1COLUMBIA-MCNARY DAM11-28-2016INFLOW (KAF)3234132158101
104GIBO3UMATILLA-NEAR GIBBON11-28-2016DISCHARGE (KAF)485096
105PDTO3UMATILLA-AT PENDLETON11-28-2016DISCHARGE (KAF)12513097
106MYKO3MCKAY CREEK-NEAR PILOT ROCK11-28-2016DISCHARGE (KAF)3730121
107UMAO3UMATILLA-NEAR UMATILLA11-28-2016DISCHARGE (KAF)154132116
108MONO3NF JOHN DAY-AT MONUMENT11-28-2016DISCHARGE (KAF)16522175
109SERO3JOHN DAY-AT SERVICE CK11-28-2016DISCHARGE (KAF)29436780
110JDAO3COLUMBIA-JOHN DAY DAM11-28-2016INFLOW (KAF)3392033745101
111MODO3DESCHUTES-AT MOODY NR BIGGS11-28-2016DISCHARGE (KAF)1446153095
112TDAO3COLUMBIA-THE DALLES DAM11-28-2016INFLOW (KAF)345713820790
113PITW1KLICKITAT-NEAR PITT11-28-2016DISCHARGE (KAF)430375115
114HODO3HOOD-NEAR TUCKER BRIDGE11-28-2016DISCHARGE (KAF)294273108
115UNDW1WHITE SALMON-NEAR UNDERWOOD11-28-2016DISCHARGE (KAF)298297100
116BONO3COLUMBIA-BONNEVILLE DAM11-28-2016INFLOW (KAF)35587MM